www.pogodaiklimat.ru

Погода и климат >> Архив погоды >> Норвегия >> Рёрус аэропорт


ПОГОДА в Рёрус аэропорту

  • Прогноз погоды в Рёрус аэропорту
  • Монитор погоды в Рёрус аэропорту

АРХИВ ПОГОДЫ в Рёрус аэропорту

Время (UTC), дата Ветер
(напр.,м/с)
 
Видим.   Явления Облачность Т
(С)
Тd
(С)
f
(%)
Тe
(С)
Тes
(С)
Комфортность P
(гПа)
Po
(гПа)
Тmin
(С)
Tmax
(С)
R
(мм)
R24
(мм)
S
(см)
16 9.06 Ю 6
{12}
н/о н/о +15.8 +6.0 52 +15 +15 1006.0 935.0
17 9.06 З 5
{11}
н/о н/о +12.7 +5.6 62 +11 +11 1007.8 935.9
18 9.06 В 2
{12}
40 км 6/3 600 м
[Sc Ac As]
+12.0 +7.7 75 +11 +12 1008.4 936.3 +10.4 +16.1 0.1
19 9.06 Ю 1
{3}
н/о н/о +12.0 +9.4 84 +12 +12 1008.3 936.2
20 9.06 Ю 2
{3}
н/о н/о +11.2 +8.8 85 +10 +10 1009.3 936.9
21 9.06 ЮЗ 2
{6}
н/о н/о +8.5 +8.5 100 +6 +6 1010.5 937.4
22 9.06 З 4
{5}
н/о н/о +9.4 +7.0 85 +7 +7 1011.4 938.4
23 9.06 З 1
{4}
н/о н/о +7.4 +6.4 93 +6 +6 1012.4 938.8
00 10.06 штиль 0
{6}
н/о н/о +6.3 +6.3 100 +5 +5 1013.0 939.2
01 10.06 ЮВ 1
{3}
н/о н/о +4.7 +4.7 100 +3 +3 1013.6 939.2
02 10.06 З 1
{2}
н/о н/о +3.2 +3.2 100 +1 +1 1014.4 939.6
03 10.06 СЗ 1
{4}
н/о н/о +3.5 +3.5 100 +2 +2 1014.7 940.0
04 10.06 СЗ 1
{3}
н/о н/о +5.6 +5.6 100 +4 +4 1014.6 940.4
05 10.06 штиль 0
{1}
н/о н/о +7.5 +7.2 98 +6 +6 1014.4 940.7
06 10.06 В 1
{4}
н/о н/о +9.3 +7.6 89 +9 +9 1014.1 940.9 +3.0 +12.5 0.1
07 10.06 ЮЗ 3
{5}
н/о н/о +10.9 +7.4 79 +9 +9 1014.0 941.2
08 10.06 З 5
{8}
н/о н/о +9.1 +5.3 77 +6 +6 1015.3 941.9
09 10.06 С 4
{5}
н/о н/о +10.7 +9.5 92 +8 +8 1015.3 942.3
10 10.06 С 3
{7}
н/о н/о +8.7 +8.3 97 +6 +6 1016.7 943.1
11 10.06 С 3
{6}
н/о н/о +8.7 +7.8 94 +6 +6 1017.6 944.0
12 10.06 С 3
{8}
10 км слаб. ливневой дождь {морось} 10/9 600 м
[Cu Sc Ac As Ci sp]
+9.4 +8.3 93 +7 +7 1017.6 944.2
13 10.06 С 3
{5}
н/о н/о +10.5 +7.9 84 +8 +8 1017.5 944.3
14 10.06 С 3
{7}
н/о н/о +10.9 +7.0 77 +9 +9 1017.6 944.6
15 10.06 С 4
{7}
н/о н/о +10.7 +6.7 76 +8 +8 1018.1 945.0
16 10.06 СВ 4
{6}
н/о н/о +10.5 +5.5 71 +8 +8 1018.5 945.3
17 10.06 С 2
{6}
н/о н/о +12.4 +5.3 62 +12 +12 1018.2 945.4
18 10.06 С 3
{7}
25 км 6/5 600 м
[Sc Ci fib]
+11.5 +4.7 63 +10 +11 1019.0 946.0 +8.5 +12.5 5
19 10.06 СВ 3
{6}
н/о н/о +10.8 +4.7 66 +9 +9 1019.7 946.4
20 10.06 СЗ 2
{7}
н/о н/о +8.0 +5.1 82 +6 +6 1021.0 947.0
21 10.06 З 2
{3}
н/о н/о +7.5 +5.5 87 +5 +5 1021.8 947.6
22 10.06 С 1
{3}
н/о н/о +7.4 +5.6 88 +6 +6 1022.6 948.3
23 10.06 штиль 0
{2}
н/о н/о +7.3 +5.3 87 +6 +6 1023.4 949.0
00 11.06 В 1
{7}
н/о н/о +6.6 +6.6 100 +5 +5 1024.0 949.5
01 11.06 С 2
{3}
н/о н/о +6.2 +6.2 100 +4 +4 1024.2 949.5
02 11.06 СЗ 1
{2}
н/о н/о +6.1 +6.1 100 +5 +5 1024.3 949.6
03 11.06 З 1
{2}
н/о н/о +6.2 +6.2 100 +5 +5 1024.6 949.9
04 11.06 С 2
{2}
н/о н/о +6.5 +6.5 100 +4 +4 1024.9 950.2
05 11.06 С 2
{3}
н/о н/о +7.0 +7.0 100 +5 +5 1025.6 951.0
06 11.06 В 3
{4}
25 км {дождь} 10/10 1000 м
[Sc]
+7.9 +6.5 91 +5 +5 1025.5 951.2 +6.0 +12.0 2
07 11.06 В 2
{4}
н/о н/о +9.3 +6.4 82 +8 +8 1025.2 951.2
08 11.06 В 2
{4}
н/о н/о +12.0 +6.3 68 +11 +11 1024.6 951.3
09 11.06 В 3
{5}
н/о н/о +12.6 +5.8 63 +11 +11 1024.6 951.4
10 11.06 СВ 2
{4}
н/о н/о +13.3 +5.0 57 +13 +13 1024.6 951.6
11 11.06 ЮВ 2
{5}
н/о н/о +15.4 +5.6 52 +15 +15 1023.8 951.4
12 11.06 ЮВ 2
{6}
26 км 8/5 1000 м
[Sc Ac trans]
+14.2 +5.6 56 +14 +18 1024.1 951.4
13 11.06 ЮВ 3
{5}
н/о н/о +14.7 +5.0 52 +14 +14 1024.2 951.6
14 11.06 В 3
{5}
н/о н/о +15.1 +3.6 46 +15 +15 1024.2 951.7
15 11.06 СВ 3
{7}
н/о н/о +16.7 +4.7 45 +17 +17 1023.5 951.5
16 11.06 СВ 3
{6}
н/о н/о +16.1 +3.9 44 +16 +16 1023.8 951.6
17 11.06 СВ 3
{5}
н/о н/о +15.4 +2.9 43 +15 +15 1024.2 951.8
18 11.06 СВ 4
{7}
30 км 8/8 1000 м
[Sc Ci fib]
+15.1 +4.5 49 +14 +14 1024.4 951.9 +7.9 +17.2
19 11.06 СВ 2
{5}
н/о н/о +15.0 +4.1 48 +15 +15 1024.5 951.9
20 11.06 С 2
{4}
н/о н/о +14.3 +5.1 54 +14 +14 1024.9 952.1
21 11.06 СЗ 2
{4}
н/о н/о +11.4 +5.9 69 +10 +10 1026.1 952.6
22 11.06 С 1
{3}
н/о н/о +9.3 +6.0 80 +9 +9 1026.9 952.8
23 11.06 С 1
{3}
н/о н/о +6.9 +5.5 91 +6 +6 1027.8 953.0
00 12.06 С 3
{5}
н/о н/о +6.5 +5.9 96 +3 +3 1028.0 953.1
01 12.06
{3}
н/о н/о +5.8 +5.8 100 1028.2 953.1
02 12.06 С 2
{3}
н/о н/о +5.1 +5.1 100 +2 +2 1028.0 952.7
03 12.06 В 1
{3}
н/о н/о +6.1 +6.1 100 +5 +5 1027.6 952.6
04 12.06 СЗ 2
{3}
н/о н/о +6.6 +6.6 100 +4 +4 1027.0 952.2
05 12.06 В 1
{3}
н/о н/о +10.3 +7.4 82 +10 +10 1026.7 952.9
06 12.06 ЮВ 5
{7}
30 км 10/8 600 м
[Sc Ac trans]
+10.9 +6.3 73 +8 +8 1026.3 952.6 +5.0 +15.5
07 12.06 ЮВ 4
{7}
н/о н/о +10.7 +5.1 68 +8 +8 1026.3 952.6
08 12.06 ЮВ 4
{8}
н/о н/о +9.9 +3.9 66 +7 +7 1026.7 952.8
09 12.06 ЮВ 4
{6}
н/о н/о +9.5 +3.7 67 +7 +7 1026.9 952.9
10 12.06 ЮВ 5
{9}
н/о н/о +10.1 +2.5 59 +7 +7 1026.2 952.4
11 12.06 ЮВ 6
{9}
н/о н/о +10.5 +2.9 59 +8 +8 1025.5 951.8
12 12.06 ЮВ 6
{9}
55 км 10/8 1000 м
[Sc Ac trans]
+11.2 +3.3 58 +8 +9 1024.3 950.9
13 12.06 ЮВ 3
{12}
н/о н/о +7.2 +5.0 86 +4 +4 1025.1 950.5
14 12.06 ЮВ 1
{4}
н/о н/о +8.0 +5.1 82 +7 +7 1024.0 949.7
15 12.06 ЮВ 3
{4}
н/о н/о +9.0 +4.4 73 +7 +7 1022.8 948.9
16 12.06 ЮВ 2
{5}
н/о н/о +8.6 +2.2 64 +7 +7 1022.6 948.6
17 12.06 Ю 2
{7}
н/о н/о +8.5 +1.7 62 +7 +7 1022.2 948.2
18 12.06 ЮВ 4
{12}
30 км {дождь} 10/0 2000 м
[Ac As]
+7.9 +2.4 68 +5 +5 1021.8 947.7 +7.2 +11.6 1
19 12.06 ЮВ 3
{5}
н/о н/о +7.7 +2.2 68 +5 +5 1021.3 947.2
20 12.06 Ю 2
{6}
н/о н/о +6.6 +3.1 78 +4 +4 1021.4 947.0
21 12.06 СВ 2
{5}
н/о н/о +6.0 +4.7 91 +3 +3 1021.2 946.6
22 12.06 ЮВ 3
{6}
н/о н/о +5.8 +5.5 98 +2 +2 1020.8 946.3
23 12.06 Ю 2
{5}
н/о н/о +5.8 +5.2 96 +3 +3 1020.1 945.6
00 13.06 ЮВ 6
{9}
н/о н/о +5.8 +4.5 91 +1 +1 1019.2 944.7
01 13.06 ЮВ 4
{8}
н/о н/о +5.5 +5.2 98 +1 +1 1018.5 944.1
02 13.06 ЮВ 4
{6}
н/о н/о +5.6 +5.6 100 +1 +1 1017.7 943.3
03 13.06 ЮВ 7
{9}
н/о н/о +5.6 +5.5 99 0 0 1016.8 942.5
04 13.06 В 3
{9}
н/о н/о +5.6 +5.6 100 +2 +2 1016.0 941.7
05 13.06 В 4
{9}
н/о н/о +6.0 +5.9 99 +2 +2 1015.6 941.5
06 13.06 В 3
{9}
1700 м слаб. дождь 10/3 300 м
[Frnb As op]
+6.0 +6.0 100 +2 +3 1015.0 940.9 +5.4 +8.0 2
07 13.06 В 6
{10}
н/о н/о +6.3 +6.0 98 +1 +1 1013.9 940.0
08 13.06 В 3
{9}
н/о н/о +6.7 +6.4 98 +3 +3 1013.7 939.9
09 13.06 ЮВ 3
{8}
н/о н/о +7.2 +6.5 95 +4 +4 1013.7 940.0
10 13.06 ЮВ 7
{11}
н/о н/о +7.8 +7.1 95 +3 +3 1013.1 939.6
11 13.06 ЮВ 5
{12}
н/о н/о +8.1 +7.0 93 +4 +4 1013.4 939.9
12 13.06 ЮВ 5
{12}
7000 м слаб. ливневой дождь 10/10 300 м
[Cb calv]
+8.3 +7.4 94 +4 +4 1013.9 940.5
13 13.06 В 3
{9}
н/о н/о +8.4 +7.7 95 +6 +6 1014.1 940.7
14 13.06 ЮВ 5
{9}
н/о н/о +9.2 +8.1 93 +6 +6 1013.8 940.6
15 13.06 ЮВ 6
{8}
н/о н/о +9.5 +8.4 93 +6 +6 1013.9 940.8
16 13.06 В 5
{9}
н/о н/о +9.5 +8.6 94 +6 +6 1014.2 941.1
17 13.06 ЮВ 6
{10}
н/о н/о +9.9 +8.8 93 +6 +6 1014.2 941.1
18 13.06 В 6
{10}
35 км 10/10 600 м
[Sc]
+9.8 +8.7 93 +6 +6 1014.7 941.6 +6.0 +9.9 2
19 13.06 ЮВ 5
{10}
н/о н/о +9.5 +8.7 95 +6 +6 1015.5 942.2
20 13.06 В 3
{7}
н/о н/о +9.2 +8.9 98 +7 +7 1016.3 942.9
21 13.06 ЮВ 5
{7}
н/о н/о +8.9 +8.8 99 +5 +5 1017.1 943.6
22 13.06 В 3
{6}
н/о н/о +8.9 +8.8 99 +6 +6 1017.8 944.2
23 13.06 В 3
{6}
н/о н/о +8.7 +8.7 100 +6 +6 1017.9 944.3
00 14.06 ЮВ 3
{10}
н/о н/о +8.6 +8.6 100 +6 +6 1018.2 944.5
01 14.06 В 2
{4}
н/о н/о +8.1 +8.1 100 +6 +6 1018.3 944.5
02 14.06 В 3
{4}
н/о н/о +8.2 +8.2 100 +5 +5 1018.1 944.3
03 14.06 ЮВ 3
{4}
н/о н/о +8.2 +8.2 100 +5 +5 1017.6 943.9
04 14.06 ЮВ 2
{4}
н/о н/о +5.9 +5.9 100 +3 +3 1018.7 944.3
05 14.06 В 3
{4}
н/о н/о +8.5 +8.5 100 +6 +6 1018.5 944.7
06 14.06 ЮВ 2
{5}
30 км 5/4 600 м
[Sc Ci fib]
+10.9 +8.5 85 +10 +12 1017.7 944.7 +5.7 +11.0
07 14.06 Ю 2
{5}
н/о н/о +11.5 +7.6 77 +10 +10 1017.6 944.7
08 14.06 ЮЗ 3
{5}
н/о н/о +13.0 +8.1 72 +12 +12 1017.2 944.6
09 14.06 ЮЗ 4
{9}
н/о н/о +14.2 +7.3 63 +13 +13 1016.8 944.6
10 14.06 ЮЗ 4
{7}
н/о н/о +15.3 +6.1 54 +14 +14 1016.4 944.5
11 14.06 ЮЗ 4
{7}
н/о н/о +16.1 +6.5 53 +15 +15 1016.0 944.3
12 14.06 З 4
{9}
40 км 5/0 600 м
[Ac As]
+17.4 +6.3 48 +17 +23 1015.2 943.9
13 14.06 Ю 4
{7}
н/о н/о +18.9 +6.1 43 +19 +19 1014.6 943.7
14 14.06 Ю 3
{7}
н/о н/о +19.7 +5.4 39 +21 +21 комфорт 1013.9 943.2
15 14.06 ЮЗ 2
{7}
н/о н/о +20.0 +4.9 37 +21 +21 комфорт 1013.5 942.9
16 14.06 ЮВ 2
{5}
н/о н/о +20.5 +5.3 37 +22 +22 комфорт 1013.1 942.6
17 14.06 Ю 2
{5}
н/о н/о +19.6 +4.5 37 +21 +21 комфорт 1013.1 942.4
18 14.06 С 5
{8}
40 км 8/4 1000 м
[Sc Ci fib]
+17.6 +9.5 59 +17 +18 1014.1 942.9 +10.9 +21.0
19 14.06 С 5
{7}
н/о н/о +15.9 +9.6 66 +15 +15 1014.9 943.3
20 14.06 СЗ 3
{6}
н/о н/о +15.3 +9.2 67 +15 +15 1015.6 943.8
21 14.06 З 1
{4}
н/о н/о +12.9 +9.2 78 +13 +13 1016.9 944.4
22 14.06 Ю 1
{2}
н/о н/о +12.0 +10.3 89 +12 +12 1017.3 944.5
23 14.06 ЮЗ 1
{3}
н/о н/о +11.2 +10.0 92 +11 +11 1017.9 944.9
00 15.06 ЮЗ 1
{7}
н/о н/о +9.7 +9.6 99 +9 +9 1018.4 945.0
01 15.06 ЮВ 1
{2}
н/о н/о +9.2 +9.2 100 +8 +8 1018.6 945.0
02 15.06 ЮВ 1
{2}
н/о н/о +8.5 +8.5 100 +8 +8 1018.9 945.1
03 15.06 Ю 1
{2}
н/о н/о +8.0 +8.0 100 +7 +7 1019.1 945.2
04 15.06 штиль 0
{4}
н/о н/о +10.1 +9.0 93 +9 +9 1018.9 945.5
05 15.06 ЮЗ 2
{3}
н/о н/о +12.3 +9.0 80 +11 +11 1018.2 945.5
06 15.06 ЮЗ 2
{4}
40 км смерч (торнадо) 4/0
[Cs]
+14.5 +9.1 70 +14 +18 1017.6 945.4 +7.9 +17.7
07 15.06 С 4
{6}
н/о н/о +16.7 +5.4 47 +16 +16 1017.3 945.6
08 15.06 С 4
{7}
н/о н/о +17.6 +4.9 43 +17 +17 1017.2 945.7
09 15.06 С 4
{7}
н/о н/о +17.9 +3.8 39 +18 +18 1017.1 945.8
10 15.06 С 3
{7}
н/о н/о +18.7 +5.6 42 +19 +19 1017.0 945.8
11 15.06 СВ 3
{6}
н/о н/о +19.5 +4.8 38 +20 +20 1016.8 945.8
12 15.06 С 3
{7}
55 км 5/4 1000 м
[Cu hum Ci fib]
+20.3 +4.8 36 +21 +28 комфорт 1016.3 945.6
13 15.06 С 4
{8}
н/о н/о +20.2 +6.6 41 +21 +21 комфорт 1015.9 945.2
14 15.06 С 5
{8}
н/о н/о +19.4 +7.2 45 +20 +20 1015.7 944.8
15 15.06 С 3
{7}
н/о н/о +20.4 +7.1 42 +22 +22 комфорт 1015.2 944.6
16 15.06 С 4
{7}
н/о н/о +20.4 +7.4 43 +22 +22 комфорт 1015.1 944.5
17 15.06 С 4
{7}
н/о н/о +20.1 +7.2 43 +21 +21 комфорт 1014.9 944.2
18 15.06 СВ 3
{8}
55 км ясно +19.6 +6.0 41 +20 +22 1014.7 943.9 +14.5 +21.0
19 15.06 СВ 2
{6}
н/о н/о +19.1 +5.6 41 +20 +20 1014.6 943.7
20 15.06 СВ 3
{5}
н/о н/о +16.9 +7.6 54 +17 +17 1015.2 943.7
21 15.06 штиль 0
{4}
н/о н/о +12.2 +8.1 76 +12 +12 1016.7 944.0
22 15.06 СЗ 2
{3}
н/о н/о +9.7 +7.7 87 +8 +8 1017.3 944.0
23 15.06 С 1
{3}
н/о н/о +7.2 +7.1 99 +6 +6 1017.6 943.6
00 16.06 СЗ 1
{6}
н/о н/о +5.9 +5.9 100 +5 +5 1017.6 943.3
01 16.06 З 1
{2}
н/о н/о +4.9 +4.9 100 +3 +3 1017.9 943.3
02 16.06 СЗ 1
{2}
н/о н/о +4.1 +4.1 100 +2 +2 1017.9 943.1
03 16.06 штиль 0
{2}
н/о н/о +5.3 +5.3 100 +4 +4 1017.1 942.7
04 16.06 штиль 0
{1}
н/о н/о +8.2 +8.2 100 +7 +7 1015.9 942.3
05 16.06 штиль 0
{1}
н/о н/о +11.7 +8.7 82 +11 +11 1014.8 942.1
06 16.06 штиль 0
{2}
55 км ясно +15.2 +9.6 69 +15 +21 1013.5 941.8 +4.0 +19.7
07 16.06 штиль 0
{2}
н/о н/о +18.2 +10.1 59 +18 +18 1012.2 941.3
08 16.06 ЮЗ 3
{5}
н/о н/о +20.3 +7.0 42 +22 +22 комфорт 1011.2 940.8
09 16.06 ЮЗ 4
{7}
н/о н/о +21.3 +8.2 43 +22 +22 комфорт 1010.7 940.6
10 16.06 ЮЗ 3
{6}
н/о н/о +20.7 +7.7 43 +22 +22 комфорт 1010.4 940.2
11 16.06 ЮЗ 7
{10}
н/о н/о +20.3 +7.7 44 +21 +21 комфорт 1010.7 940.3
12 16.06 ЮЗ 6
{11}
40 км 9/0 2000 м
[Ac As]
+18.8 +8.2 50 +19 +21 1011.3 940.6
13 16.06 ЮЗ 2
{8}
н/о н/о +18.7 +8.9 53 +20 +20 1011.5 940.7
14 16.06 ЮВ 2
{4}
н/о н/о +19.0 +8.7 51 +20 +20 1011.1 940.5

 

Местоположение метеостанции Рёрус аэропорт (Норвегия): широта 62.58 долгота 11.35 высота над уровнем моря 625 м.

В архиве по умолчанию представлена погода в Рёрус аэропорту за последнюю неделю. Архивные данные за месяц целиком и за предыдущие месяцы, начиная с января 2011 года, Вы можете получить, выбрав интересующий диапазон дат из раскрывающегося списка и нажав кнопку "Ввод!".


*Определитесь, кто Вы:
робот инопланетянин человек

Внимание! Время в таблицах - всемирное. Для получения местного времени необходимо прибавить поправку, которая равна 1 ч.

Смотрите также архив погоды в соседних городах и на ближайших метеорологических станциях:

Погода в Солендете (Норвегия) (26 км)
Погода в Тынсете (Норвегия) (47 км)
Погода в Котсой (Норвегия) (60 км)
Погода в Таннасе (Швеция) (69 км)
Погода на Сыларне (Швеция) (70 км)
Погода в Сокнедале (Норвегия) (72 км)
Погода во Флатруэте (Швеция) (72 км)
Погода в Сельбу (Норвегия) (74 км)
Погода в Блахамаррене (Швеция) (79 км)
Погода в Древсё (Норвегия) (85 км)

Пояснения к столбцам:

Ветер - указаны скорость ветра в м/с - средняя за 10 мин, порывы в срок и между сроками (в фигурных скобках) и направление, откуда дует ветер: С - северный, СВ - северо-восточный, В - восточный, ЮВ - юго-восточный, Ю - южный, ЮЗ - юго-западный, З - западный, СЗ - северо-западный.
Видимость - горизонтальная дальность видимости в метрах или километрах. При видимости от 1 до 10 км при отсутствии осадков обычно наблюдается дымка, при ухудшении видимости до 1 км и менее - туман. В сухую погоду видимость может ухудшаться дымом, пылью или мглою.
Явления - указаны атмосферные явления, наблюдавшиеся в срок или в последний час перед сроком; фигурными скобками обозначены явления, наблюдавшиеся между сроками (за 1-3 часа до срока); квадратными скобками обозначены град или гололедные отложения с указанием их диаметра в мм.
Облачность - указаны через наклонную черту общая и нижняя облачность в баллах и высота нижней границы облаков в метрах; квадратными скобками обозначены формы облаков: Ci - перистые, Cs - перисто-слоистые, Cc - перисто-кучевые, Ac - высококучевые, As - высокослоистые, Sc - слоисто-кучевые, Ns - слоисто-дождевые, Cu - кучевые, Cb - кучево-дождевые. Подробнее классификацию облаков см. в Атласе облаков (PDF).
T - Температура воздуха - температура, измеренная на высоте 2 м над землей.
Td - Температура точки росы - температура, при понижении до которой содержащийся в воздухе водяной пар достигнет насыщения.
f - Относительная влажность воздуха - влажноcть воздуха, измеренная на высоте 2 м над землей.
Te - Эффективная температура - температура, которую ощущает одетый по сезону человек в тени. Характеристика душности погоды. При расчете учитывается влияние влажности воздуха и скорости ветра на теплоощущения человека.
Tes - Эффективная температура на солнце - температура, которую ощущает человек, с поправкой на солнечный нагрев. Характеристика знойности погоды. Зависит от высоты солнца над горизонтом, облачности и скорости ветра. Ночью, в пасмурную погоду, а также при ветре 12 м/с и более поправка равна нулю.
P - Атмосферное давление - приведенное к уровню моря атмосферное давление.
Po - Атмосферное давление - измеренное на уровне метеостанции атмосферное давление.
Tmin - Минимальная температура - минимум температуры воздуха на высоте 2 м над землей.
Tmax - Максимальная температура - максимум температуры воздуха на высоте 2 м над землей.
R - Количество осадков - Количество выпавших осадков за период времени, мм. При наведении курсора мыши на число - период времени, за который выпало указанное количество осадков.
R24 - Количество осадков - Количество выпавших осадков за 24 часа, мм.
S - Снежный покров - Высота снежного покрова, см. При наведении курсора мыши на число - состояние снежного покрова и степень покрытия местности в баллах.